User: anonymous   Login
Location: Unspecified
(0.0000°N, 0.0000°E)
Time: 07:45:44
(UTC+00:00)
Language:

Meteor 3-3 - Orbit

View from above orbital plane
View from above orbital plane
View from above satellite
View from above satellite

Ground track
Ground track

The orbit data is extracted from the following two-line orbital elements,

1 20305U 89086A   18110.81704507 -.00000426  00000-0 -13635-2 0  9998
2 20305  82.5558   7.8024 0005823 247.6288 175.9602 13.04628541358360
Epoch (UTC): 20 April 2018 19:36:32
Eccentricity: 0.0005823
inclination: 82.5558°
perigee height: 1239 km
apogee height: 1248 km
right ascension of ascending node: 7.8024°
argument of perigee: 247.6288°
revolutions per day: 13.04628541
mean anomaly at epoch: 175.9602°
orbit number at epoch: 35836

The dashed part of the orbit path shows where the satellite is in the earth's shadow,  

DLR